Simultaneous Nadir Overpasses (SNOs) Predictions

Prediction of SNOs between NPP and TERRA Satellite Orbit:

Table of predicted SNOs for the next 14.0 days since TLE Epoch: 7/18/2015
Index Date (NPP) Time (NPP) Lat,Lon (NPP) SZA (NPP ) Date (TERRA) Time (TERRA) Lat,Lon (TERRA) SZA (TERRA ) Distance(km) Time Diff (sec)
1 07/19/2015 09:02:09 68.79, 43.66 47.83 07/19/2015 09:02:34 68.80, 43.72 47.84 2.92 25
2 07/19/2015 09:52:49 -68.64,-148.83 132.32 07/19/2015 09:52:04 -68.64,-148.85 132.32 0.87 45
3 07/22/2015 00:28:21 -69.11, -8.31 131.35 07/22/2015 00:29:33 -69.03, -7.76 131.44 23.69 72
4 07/22/2015 01:19:00 68.74, 159.50 48.28 07/22/2015 01:19:03 68.75, 159.53 48.29 1.74 3
5 07/22/2015 02:09:41 -68.58, -32.98 131.87 07/22/2015 02:08:34 -68.59, -33.03 131.86 2.34 67
6 07/24/2015 16:45:08 -68.78, 107.90 131.13 07/24/2015 16:46:06 -68.80, 107.83 131.13 3.19 58
7 07/24/2015 17:35:52 68.68, -84.66 48.77 07/24/2015 17:35:33 68.68, -84.67 48.77 0.90 19
8 07/24/2015 18:26:23 -67.99, 83.55 131.93 07/24/2015 18:25:13 -68.02, 82.17 131.87 57.85 70
9 07/27/2015 09:02:01 -68.78,-136.33 130.55 07/27/2015 09:02:35 -68.77,-136.32 130.57 1.18 34
10 07/27/2015 09:52:44 68.63, 31.18 49.30 07/27/2015 09:52:02 68.65, 31.17 49.33 2.28 42
11 07/30/2015 00:28:18 69.22, 171.53 50.51 07/30/2015 00:29:29 69.11, 172.36 50.38 34.69 71
12 07/30/2015 01:18:53 -68.73, -20.49 129.98 07/30/2015 01:19:04 -68.74, -20.48 129.98 0.55 11
13 07/30/2015 02:09:35 68.58, 147.02
